| time (UTC) | temp F | wind direction | speed MPH | gust MPH | rain 1hr in | rain 24hr in | rain mn in | humidity % | barometer mb |
| 20260505003116 | 67 | 186 | 15.0 | 28.0 | 0.00 | 0.00 | 0.00 | 22 | 1004.5 |
| 20260505002116 | 68 | 163 | 13.0 | 20.0 | 0.00 | 0.00 | 0.00 | 20 | 1004.3 |
| 20260505001053 | 68 | 173 | 15.0 | 28.0 | 0.00 | 0.00 | 0.00 | 20 | 1004.3 |
| 20260505000116 | 68 | 173 | 13.0 | 28.0 | 0.00 | 0.00 | 0.00 | 20 | 1004.4 |
| 20260504235126 | 68 | 214 | 14.0 | 27.0 | 0.00 | 0.00 | 0.00 | 21 | 1004.6 |
| 20260504234102 | 68 | 154 | 14.0 | 21.0 | 0.00 | 0.00 | 0.00 | 20 | 1004.7 |
| 20260504233109 | 69 | 205 | 13.0 | 25.0 | 0.00 | 0.00 | 0.00 | 19 | 1004.8 |
| 20260504232118 | 69 | 211 | 16.0 | 25.0 | 0.00 | 0.00 | 0.00 | 20 | 1004.8 |
| 20260504230036 | 70 | 154 | 13.0 | 23.0 | 0.00 | 0.00 | 0.00 | 19 | 1004.7 |
| 20260504225054 | 71 | 204 | 13.0 | 24.0 | 0.00 | 0.00 | 0.00 | 20 | 1004.8 |
| 20260504224035 | 71 | 4 | 14.0 | 24.0 | 0.00 | 0.00 | 0.00 | 19 | 1004.9 |
| 20260504223058 | 72 | 194 | 13.0 | 23.0 | 0.00 | 0.00 | 0.00 | 19 | 1005.1 |
| 20260504222121 | 71 | 167 | 11.0 | 23.0 | 0.00 | 0.00 | 0.00 | 20 | 1005.1 |
| 20260504221052 | 71 | 173 | 12.0 | 22.0 | 0.00 | 0.00 | 0.00 | 21 | 1005.3 |
| 20260504214914 | 70 | 223 | 13.0 | 25.0 | 0.00 | 0.00 | 0.00 | 20 | 1005.4 |
| 20260504213843 | 71 | 194 | 13.0 | 25.0 | 0.00 | 0.00 | 0.00 | 19 | 1005.7 |
| 20260504212840 | 71 | 4 | 12.0 | 24.0 | 0.00 | 0.00 | 0.00 | 21 | 1005.9 |
| 20260504210719 | 71 | 4 | 12.0 | 23.0 | 0.00 | 0.00 | 0.00 | 22 | 1006.1 |
| 20260504205718 | 71 | 179 | 11.0 | 27.0 | 0.00 | 0.00 | 0.00 | 22 | 1006.6 |
| 20260504204659 | 71 | 212 | 13.0 | 27.0 | 0.00 | 0.00 | 0.00 | 22 | 1006.7 |
| 20260504203646 | 71 | 222 | 14.0 | 23.0 | 0.00 | 0.00 | 0.00 | 22 | 1006.9 |
| 20260504201502 | 70 | 195 | 14.0 | 27.0 | 0.00 | 0.00 | 0.00 | 20 | 1006.9 |
| 20260504200437 | 70 | 180 | 11.0 | 26.0 | 0.00 | 0.00 | 0.00 | 21 | 1007.0 |
| 20260504195406 | 69 | 188 | 15.0 | 26.0 | 0.00 | 0.00 | 0.00 | 22 | 1007.2 |
| 20260504194416 | 69 | 195 | 14.0 | 23.0 | 0.00 | 0.00 | 0.00 | 21 | 1006.9 |
| 20260504193415 | 70 | 200 | 12.0 | 23.0 | 0.00 | 0.00 | 0.00 | 21 | 1007.1 |
| 20260504192419 | 69 | 171 | 13.0 | 19.0 | 0.00 | 0.00 | 0.00 | 22 | 1006.9 |
| 20260504191443 | 69 | 239 | 14.0 | 26.0 | 0.00 | 0.00 | 0.00 | 22 | 1007.0 |
| 20260504190425 | 69 | 222 | 15.0 | 26.0 | 0.00 | 0.00 | 0.00 | 20 | 1007.2 |
| 20260504185405 | 69 | 229 | 15.0 | 27.0 | 0.00 | 0.00 | 0.00 | 21 | 1007.3 |
| 20260504182050 | 68 | 222 | 13.0 | 24.0 | 0.00 | 0.00 | 0.00 | 22 | 1007.3 |
| 20260504181056 | 68 | 244 | 11.0 | 20.0 | 0.00 | 0.00 | 0.00 | 24 | 1007.2 |
| 20260504180104 | 67 | 176 | 12.0 | 20.0 | 0.00 | 0.00 | 0.00 | 24 | 1007.5 |
| 20260504175118 | 67 | 188 | 11.0 | 19.0 | 0.00 | 0.00 | 0.00 | 27 | 1007.5 |
| 20260504174117 | 67 | 175 | 11.0 | 21.0 | 0.00 | 0.00 | 0.00 | 28 | 1007.5 |
| 20260504173128 | 66 | 161 | 11.0 | 21.0 | 0.00 | 0.00 | 0.00 | 30 | 1007.8 |
| 20260504172135 | 65 | 180 | 11.0 | 20.0 | 0.00 | 0.00 | 0.00 | 32 | 1007.9 |
| 20260504171140 | 65 | 173 | 10.0 | 20.0 | 0.00 | 0.00 | 0.00 | 31 | 1008.2 |
| 20260504140656 | 59 | 203 | 5.0 | 11.0 | 0.00 | 0.00 | 0.00 | 40 | 1008.2 |
| 20260504130527 | 55 | 250 | 4.0 | 13.0 | 0.00 | 0.00 | 0.00 | 43 | 1007.5 |
| 20260504110313 | 54 | 242 | 3.0 | 8.0 | 0.00 | 0.00 | 0.00 | 39 | 1007.7 |
| 20260504050329 | 61 | 43 | 0.0 | 2.0 | 0.00 | 0.00 | 0.00 | 50 | 1008.8 |
| 20260504045318 | 60 | 42 | 1.0 | 2.0 | 0.00 | 0.00 | 0.00 | 51 | 1008.9 |
| 20260504043235 | 60 | 36 | 2.0 | 4.0 | 0.00 | 0.00 | 0.00 | 51 | 1009.0 |
| 20260504042217 | 61 | 42 | 2.0 | 4.0 | 0.00 | 0.00 | 0.00 | 49 | 1009.3 |
| 20260504041152 | 62 | 59 | 1.0 | 2.0 | 0.00 | 0.00 | 0.00 | 49 | 1009.2 |
| 20260504040149 | 62 | 59 | 1.0 | 2.0 | 0.00 | 0.00 | 0.00 | 48 | 1009.1 |
| 20260504035145 | 62 | 100 | 0.0 | 2.0 | 0.00 | 0.00 | 0.00 | 49 | 1009.0 |
| 20260504034143 | 61 | 18 | 0.0 | 3.0 | 0.00 | 0.00 | 0.00 | 49 | 1008.9 |
| 20260504032029 | 62 | 107 | 0.0 | 2.0 | 0.00 | 0.00 | 0.00 | 47 | 1008.8 |
| 20260504031014 | 62 | 108 | 0.0 | 5.0 | 0.00 | 0.00 | 0.00 | 48 | 1008.6 |
| 20260504024840 | 62 | 57 | 3.0 | 5.0 | 0.00 | 0.00 | 0.00 | 50 | 1008.6 |
| 20260504023840 | 62 | 68 | 0.0 | 4.0 | 0.00 | 0.00 | 0.00 | 49 | 1008.6 |
| 20260504022850 | 63 | 75 | 1.0 | 4.0 | 0.00 | 0.00 | 0.00 | 48 | 1008.3 |
| 20260504021855 | 64 | 106 | 0.0 | 0.0 | 0.00 | 0.00 | 0.00 | 46 | 1008.6 |
| 20260504020859 | 64 | 96 | 1.0 | 5.0 | 0.00 | 0.00 | 0.00 | 45 | 1008.7 |
| 20260504015901 | 65 | 78 | 2.0 | 9.0 | 0.00 | 0.00 | 0.00 | 45 | 1008.8 |
| 20260504014859 | 66 | 104 | 2.0 | 9.0 | 0.00 | 0.00 | 0.00 | 43 | 1008.9 |
| 20260504013826 | 66 | 86 | 3.0 | 8.0 | 0.00 | 0.00 | 0.00 | 42 | 1008.9 |
| 20260504012757 | 67 | 130 | 2.0 | 10.0 | 0.00 | 0.00 | 0.00 | 40 | 1008.8 |
| 20260504011803 | 69 | 161 | 5.0 | 10.0 | 0.00 | 0.00 | 0.00 | 37 | 1008.9 |
| 20260504010820 | 69 | 142 | 4.0 | 9.0 | 0.00 | 0.00 | 0.00 | 37 | 1009.0 |
| 20260504004739 | 67 | 126 | 4.0 | 9.0 | 0.00 | 0.00 | 0.00 | 39 | 1009.0 |